STARLINK-35244

Last updated on Mon Oct 20 2025 00:02:07 GMT+0000 (Coordinated Universal Time)

1 65829U 25221G 25292.25002315 -.00022960 00000+0 -56599-3 0 9997 2 65829 53.1606 28.8542 0001066 72.5157 122.5533 15.39607651 4404
UTC large
Height (km)
Speed (km/s)
/
Latitude / Longitude
Inclination (degrees)
Orbital Period (minutes)
Azimuth
Elevation
Range (km)
Doppler Factor

Next 0 passes for location: London (51.5072 / 0.1276)

Sorry there are no passes over London.